| time (UTC) | temp F | wind direction | speed MPH | gust MPH | rain 1hr in | rain 24hr in | rain mn in | humidity % | barometer mb |
| 20260503014511 | 41 | 252 | 0.0 | 5.0 | 0.00 | 0.00 | 0.00 | 76 | 1016.6 |
| 20260503013011 | 41 | 272 | 1.0 | 4.0 | 0.00 | 0.00 | 0.00 | 76 | 1016.6 |
| 20260503011511 | 41 | 219 | 4.0 | 7.0 | 0.00 | 0.00 | 0.00 | 75 | 1016.6 |
| 20260503010010 | 41 | 259 | 3.0 | 7.0 | 0.00 | 0.00 | 0.00 | 75 | 1016.5 |
| 20260503004511 | 41 | 244 | 3.0 | 5.0 | 0.00 | 0.00 | 0.00 | 74 | 1016.4 |
| 20260503003009 | 41 | 237 | 0.0 | 4.0 | 0.00 | 0.00 | 0.00 | 74 | 1016.3 |
| 20260503001512 | 42 | 257 | 1.0 | 4.0 | 0.00 | 0.00 | 0.00 | 73 | 1016.2 |
| 20260503000008 | 42 | 233 | 1.0 | 5.0 | 0.00 | 0.00 | 0.00 | 72 | 1016.1 |
| 20260502234507 | 42 | 240 | 1.0 | 8.0 | 0.00 | 0.00 | 0.00 | 71 | 1016.1 |
| 20260502233007 | 42 | 270 | 3.0 | 7.0 | 0.00 | 0.00 | 0.00 | 69 | 1016.2 |
| 20260502231507 | 43 | 252 | 0.0 | 4.0 | 0.00 | 0.00 | 0.00 | 70 | 1016.1 |
| 20260502230016 | 43 | 238 | 2.0 | 7.0 | 0.00 | 0.00 | 0.00 | 68 | 1016.0 |
| 20260502224507 | 43 | 240 | 1.0 | 4.0 | 0.00 | 0.00 | 0.00 | 69 | 1015.9 |
| 20260502223006 | 43 | 286 | 1.0 | 6.0 | 0.00 | 0.00 | 0.00 | 68 | 1015.8 |
| 20260502221504 | 43 | 305 | 2.0 | 8.0 | 0.00 | 0.00 | 0.00 | 67 | 1015.8 |
| 20260502220004 | 43 | 263 | 2.0 | 5.0 | 0.00 | 0.00 | 0.00 | 71 | 1016.0 |
| 20260502214503 | 43 | 270 | 4.0 | 9.0 | 0.00 | 0.00 | 0.00 | 71 | 1016.1 |
| 20260502213003 | 43 | 269 | 3.0 | 9.0 | 0.00 | 0.00 | 0.00 | 70 | 1015.9 |
| 20260502211505 | 45 | 284 | 3.0 | 9.0 | 0.00 | 0.00 | 0.00 | 68 | 1016.0 |
| 20260502210001 | 43 | 252 | 4.0 | 10.0 | 0.00 | 0.00 | 0.00 | 70 | 1015.7 |
| 20260502204502 | 43 | 279 | 3.0 | 13.0 | 0.00 | 0.00 | 0.00 | 73 | 1016.0 |
| 20260502203001 | 42 | 210 | 2.0 | 9.0 | 0.00 | 0.00 | 0.00 | 69 | 1015.9 |
| 20260502201600 | 42 | 271 | 4.0 | 13.0 | 0.00 | 0.00 | 0.00 | 70 | 1016.0 |
| 20260502200101 | 42 | 215 | 7.0 | 14.0 | 0.00 | 0.00 | 0.00 | 70 | 1016.3 |
| 20260502194559 | 42 | 252 | 2.0 | 11.0 | 0.00 | 0.00 | 0.00 | 71 | 1016.3 |
| 20260502193108 | 42 | 214 | 2.0 | 9.0 | 0.00 | 0.00 | 0.00 | 71 | 1016.4 |
| 20260502191602 | 43 | 255 | 5.0 | 13.0 | 0.00 | 0.00 | 0.00 | 68 | 1016.5 |
| 20260502190110 | 44 | 259 | 4.0 | 9.0 | 0.00 | 0.00 | 0.00 | 65 | 1016.3 |
| 20260502184602 | 44 | 333 | 2.0 | 7.0 | 0.00 | 0.01 | 0.00 | 67 | 1016.3 |
| 20260502183111 | 43 | 355 | 1.0 | 6.0 | 0.00 | 0.01 | 0.00 | 70 | 1016.3 |
| 20260502181556 | 43 | 314 | 3.0 | 13.0 | 0.00 | 0.01 | 0.00 | 70 | 1016.3 |
| 20260502163055 | 43 | 331 | 4.0 | 14.0 | 0.00 | 0.06 | 0.00 | 66 | 1016.6 |
| 20260502161601 | 44 | 304 | 4.0 | 10.0 | 0.00 | 0.06 | 0.00 | 64 | 1016.5 |
| 20260502151543 | 43 | 240 | 3.0 | 10.0 | 0.00 | 0.07 | 0.00 | 63 | 1016.5 |
| 20260502123021 | 39 | 305 | 2.0 | 10.0 | 0.00 | 0.07 | 0.00 | 78 | 1017.0 |
| 20260502121516 | 39 | 254 | 3.0 | 7.0 | 0.00 | 0.07 | 0.00 | 79 | 1016.8 |
| 20260502114513 | 37 | 304 | 1.0 | 5.0 | 0.00 | 0.07 | 0.00 | 87 | 1017.0 |
| 20260502113010 | 35 | 296 | 0.0 | 4.0 | 0.00 | 0.07 | 0.00 | 91 | 1016.7 |
| 20260502111517 | 33 | 250 | 0.0 | 1.0 | 0.00 | 0.07 | 0.00 | 93 | 1016.6 |
| 20260502110009 | 32 | 250 | 0.0 | 0.0 | 0.00 | 0.07 | 0.00 | 93 | 1016.7 |
| 20260502104559 | 31 | 250 | 0.0 | 0.0 | 0.00 | 0.07 | 0.00 | 93 | 1016.5 |
| 20260502103057 | 31 | 250 | 0.0 | 0.0 | 0.00 | 0.07 | 0.00 | 92 | 1016.2 |
| 20260502101555 | 31 | 250 | 0.0 | 1.0 | 0.00 | 0.07 | 0.00 | 93 | 1016.2 |
| 20260502070034 | 33 | 304 | 0.0 | 2.0 | 0.00 | 0.07 | 0.00 | 89 | 1015.7 |
| 20260502064534 | 33 | 304 | 0.0 | 0.0 | 0.00 | 0.07 | 0.00 | 88 | 1015.7 |
| 20260502063030 | 34 | 303 | 0.0 | 3.0 | 0.00 | 0.07 | 0.00 | 87 | 1015.7 |
| 20260502061527 | 34 | 304 | 0.0 | 0.0 | 0.00 | 0.07 | 0.00 | 86 | 1015.7 |
| 20260502060025 | 35 | 304 | 0.0 | 0.0 | 0.00 | 0.07 | 0.00 | 84 | 1015.7 |
| 20260502054522 | 35 | 304 | 0.0 | 0.0 | 0.00 | 0.07 | 0.00 | 83 | 1015.8 |
| 20260502053020 | 36 | 304 | 0.0 | 0.0 | 0.00 | 0.07 | 0.00 | 82 | 1015.8 |
| 20260502051518 | 37 | 304 | 0.0 | 2.0 | 0.00 | 0.07 | 0.00 | 81 | 1015.6 |
| 20260502050014 | 37 | 304 | 0.0 | 2.0 | 0.00 | 0.07 | 0.00 | 80 | 1015.5 |
| 20260502044512 | 38 | 304 | 0.0 | 4.0 | 0.00 | 0.07 | 0.00 | 78 | 1015.3 |
| 20260502043009 | 38 | 315 | 0.0 | 5.0 | 0.00 | 0.07 | 0.00 | 77 | 1015.1 |
| 20260502041505 | 39 | 319 | 2.0 | 10.0 | 0.00 | 0.07 | 0.00 | 75 | 1015.0 |
| 20260502040003 | 40 | 304 | 2.0 | 5.0 | 0.00 | 0.07 | 0.07 | 74 | 1015.0 |
| 20260502034505 | 41 | 294 | 2.0 | 7.0 | 0.00 | 0.07 | 0.07 | 74 | 1014.9 |
| 20260502033001 | 41 | 300 | 1.0 | 7.0 | 0.00 | 0.07 | 0.07 | 81 | 1014.9 |
| 20260502031501 | 41 | 252 | 2.0 | 7.0 | 0.00 | 0.07 | 0.07 | 83 | 1014.9 |
| 20260502030000 | 41 | 257 | 1.0 | 7.0 | 0.00 | 0.07 | 0.07 | 84 | 1015.0 |
| 20260502024600 | 41 | 243 | 2.0 | 7.0 | 0.00 | 0.07 | 0.07 | 83 | 1014.8 |
| 20260502023100 | 42 | 235 | 2.0 | 5.0 | 0.00 | 0.07 | 0.07 | 83 | 1014.9 |
| 20260502021558 | 42 | 221 | 2.0 | 6.0 | 0.00 | 0.07 | 0.07 | 83 | 1014.7 |
| 20260502020109 | 42 | 224 | 2.0 | 7.0 | 0.00 | 0.07 | 0.07 | 82 | 1014.8 |